[[{"header":{"parameterUnit":"m.s-1","parameterCategory":1,"la1":30.2991,"la2":30.254,"lo1":-89.0895,"lo2":-89.0444,"dy":0.0017,"dx":0.0017,"nx":28,"ny":28,"refTime":"2024-08-02T09:00:00:Z","depth":0,"parameterNumber":2,"parameterNumberName":"U-component_of_WINDS"},"data":[0,0,0,0,0,0,0,0,0,0,0,0,0,0,0,0,0,0,0,0,0,0,0,0,0,0,0,0,0,0,0,0,0,0,0,0,0,0,0,0,0,0,0,0,0,0,0,0,0,0,0,0,0,0,0,0,0,0,3.5888,3.5889,0,3.6016,3.6018,3.6019,3.5949,3.5946,3.5942,3.5939,3.6073,3.608,3.6086,0,0,0,0,0,0,0,0,0,0,0,0,0,3.5583,3.5589,3.5888,3.5889,3.5891,3.6016,3.6018,3.602,3.595,3.5945,3.5941,3.5937,3.6071,3.6079,3.6087,0,0,0,0,0,0,0,0,0,0,0,0,0,3.5714,3.5591,3.5888,3.5871,3.5871,3.6016,3.6018,3.602,3.5951,3.5945,3.594,3.5935,3.6068,3.6078,3.6088,3.6257,0,0,3.612,3.6124,0,0,0,0,0,0,0,0,3.5707,3.5726,3.5872,3.5873,3.5873,3.5961,3.596,3.61,3.5952,3.5921,3.5939,3.5933,3.604,3.6052,3.6088,3.6264,3.6269,3.612,3.6127,3.6131,3.6134,0,0,0,0,0,0,0,3.5698,3.572,3.5939,3.5874,3.5875,3.5858,3.5871,3.5986,3.6009,3.5923,3.5918,3.5934,3.6039,3.6079,3.6091,3.6271,3.612,3.6129,3.6136,3.614,3.659,3.6596,0,0,0,0,0,0,3.569,3.5713,3.5935,3.5943,3.5775,3.5868,3.5882,3.5938,3.6007,3.6012,3.5938,3.593,3.6064,3.6079,3.6095,3.6297,3.6131,3.6141,3.6147,3.6585,3.6592,3.6598,0,0,0,0,0,0,3.5683,3.571,3.5929,3.5826,3.5853,3.5878,3.5942,3.5943,3.5982,3.6019,3.6023,3.5974,3.606,3.6081,3.6217,3.6301,3.6145,3.6155,3.6578,3.6587,3.6595,3.6702,0,0,0,0,0,0,3.5675,3.5708,3.5773,3.5828,3.5859,3.6049,3.5947,3.595,3.6,3.5991,3.6053,3.6059,3.6057,3.6202,3.6227,3.6312,3.6163,3.657,3.6582,3.6592,3.6691,3.6713,3.6732,0,0,0,0,0,3.5664,3.5799,3.5776,3.5803,3.594,3.6054,3.6071,3.6067,3.6007,3.6072,3.6095,3.6057,3.6287,3.6217,3.6244,3.6333,3.6565,3.6579,3.6591,3.6682,3.6709,3.6732,0,0,0,0,0,0,3.5754,3.5806,3.5781,3.5938,3.5992,3.6042,3.6124,3.6096,3.6168,3.6157,3.6148,3.6163,3.6304,3.6333,3.6253,3.65,3.6417,3.6436,3.6477,3.6503,3.6523,3.6513,3.6171,0,0,0,0,0,3.5791,3.5879,3.592,3.6054,3.6082,3.6099,3.6148,3.6139,3.6196,3.6218,3.6251,3.6308,3.6393,3.6449,3.653,3.6695,3.6707,3.677,3.679,3.6807,3.6824,3.6912,3.694,3.6641,3.6641,3.664,0,0,3.587,3.591,3.5966,3.6073,3.6114,3.6205,3.6118,3.6219,3.6287,3.6234,3.6364,3.639,3.6453,3.6604,3.6672,3.6632,3.6909,3.6824,3.6837,3.6845,3.6928,3.6957,3.6982,3.665,3.6648,3.6647,0,0,3.6061,3.61,3.6215,3.6257,3.632,3.6329,3.6357,3.6411,3.6426,3.6556,3.6518,3.6599,3.6746,3.6792,3.6834,3.7041,3.7008,3.7067,3.7175,3.7261,3.7285,3.7305,3.7378,3.7405,3.7084,3.7084,3.7084,0,3.6152,3.6287,3.6278,3.6381,3.6429,3.6384,3.6501,3.6542,3.6629,3.6663,3.6616,3.6798,3.6837,3.6998,3.7048,3.7084,3.7115,3.706,3.7282,3.7303,3.7322,3.7391,3.7419,3.7091,3.709,3.7089,3.7089,0,3.6395,3.649,3.6576,3.6658,3.6716,3.6826,3.6833,3.6893,3.6879,3.6893,3.7026,3.7071,3.7159,3.7196,3.7185,3.7355,3.7328,3.7282,3.7198,3.7357,3.7422,3.7449,3.71,3.7098,3.7096,3.7094,0,0,3.6647,3.6722,3.6753,3.679,3.6855,3.6928,3.7035,3.712,3.7171,3.7232,3.7321,3.7446,3.7403,3.7451,3.7444,3.752,3.7679,3.7464,3.7465,3.7502,3.7869,3.7903,3.7934,3.7658,3.7663,3.7667,3.7864,0,3.6842,3.7028,3.7022,3.7196,3.7283,3.7241,3.7334,3.7384,3.7401,3.7477,3.7495,3.7583,3.752,3.7549,3.7622,3.7644,3.7753,3.763,3.7741,3.7745,3.7726,3.7969,3.8005,3.8189,3.7889,3.7894,3.7897,0,3.7094,3.7161,3.7344,3.7394,3.743,3.7515,3.7591,3.7665,3.772,3.7727,3.778,3.776,3.7869,3.7782,3.7931,3.7848,3.7893,3.7911,3.7918,3.7928,3.7831,3.7985,3.8248,3.8275,3.7937,3.7934,3.7931,0,3.7258,3.7395,3.7521,3.7554,3.7616,3.7676,3.7705,3.7755,3.7806,3.7873,3.7906,3.7986,3.803,3.8092,3.8094,3.803,3.8245,3.8158,3.8253,3.8253,3.83,3.8297,3.8574,3.833,3.8329,3.8329,3.8328,0,3.7476,3.759,3.7596,3.7674,3.7799,3.7791,3.7915,3.7938,3.7983,3.8065,3.8033,3.8111,3.8108,3.8187,3.819,3.8313,3.8333,3.8341,3.834,3.8344,3.8343,3.8373,3.836,3.8336,3.8335,3.8333,3.8332,0,3.7682,3.769,3.7825,3.7872,3.7887,3.7977,3.8018,3.8092,3.8104,3.8208,3.8232,3.8252,3.8343,3.8351,3.8457,3.8458,3.8607,3.8593,3.8588,3.8585,3.868,3.867,3.8985,3.9026,3.8756,3.8758,3.8761,0,3.782,3.7906,3.7962,3.8013,3.8045,3.813,3.8181,3.8176,3.8231,3.83,3.8365,3.8453,3.8522,3.8669,3.8694,3.8774,3.8762,3.8866,3.8774,3.8774,3.8762,3.8757,3.8765,3.8884,3.8887,3.889,3.8892,0,3.8065,3.8064,3.8139,3.8215,3.8277,3.8337,3.8393,3.8437,3.8439,3.8502,3.8594,3.8648,3.8755,3.8842,3.8921,3.8951,3.8922,3.8921,3.8947,3.8951,3.8945,3.8949,3.8637,3.8914,3.8911,3.891,3.8909,3.8908,3.8241,3.8314,3.8364,3.8448,3.849,3.8542,3.8614,3.8634,3.8711,3.8796,3.8789,3.889,3.8943,3.9045,3.9081,3.916,3.9125,3.9163,3.9173,3.9182,3.9191,3.8932,3.9175,3.9174,3.9173,3.9173,3.9172,0,3.8483,3.8513,3.859,3.8668,3.8734,3.87,3.876,3.8817,3.8907,3.8957,3.9026,3.9131,3.9215,3.9245,3.9327,3.9385,3.9373,3.9406,3.9402,3.9409,3.9218,3.9187,3.9414,3.9414,3.9414,3.9414,3.9414,3.9414,3.8617,3.8739,3.8745,3.8887,3.8916,3.9014,3.9051,3.9099,3.9139,3.9258,3.9327,3.9345,3.9388,3.9472,3.9548,3.9554,3.9586,3.9624,3.9626,3.9447,3.9423,3.9399,3.937,3.9631,3.9632,3.9809,3.9811,3.9812]},{"header":{"parameterUnit":"m.s-1","parameterCategory":1,"la1":30.2991,"la2":30.254,"lo1":-89.0895,"lo2":-89.0444,"dy":0.0017,"dx":0.0017,"nx":28,"ny":28,"refTime":"2024-08-02T09:00:00:Z","depth":0,"parameterNumber":3,"parameterNumberName":"V-component_of_WINDS"},"data":[0,0,0,0,0,0,0,0,0,0,0,0,0,0,0,0,0,0,0,0,0,0,0,0,0,0,0,0,0,0,0,0,0,0,0,0,0,0,0,0,0,0,0,0,0,0,0,0,0,0,0,0,0,0,0,0,0,0,0.2195,0.2195,0,0.2198,0.2198,0.2198,0.2185,0.2184,0.2184,0.2184,0.2187,0.2187,0.2188,0,0,0,0,0,0,0,0,0,0,0,0,0,0.2176,0.2176,0.2195,0.2195,0.2195,0.2198,0.2198,0.2198,0.2185,0.2184,0.2184,0.2183,0.2187,0.2187,0.2188,0,0,0,0,0,0,0,0,0,0,0,0,0,0.2182,0.2176,0.2195,0.2189,0.2188,0.2198,0.2198,0.2198,0.2185,0.2184,0.2184,0.2183,0.2187,0.2187,0.2188,0.2204,0,0,0.219,0.219,0,0,0,0,0,0,0,0,0.2182,0.2183,0.219,0.2189,0.2189,0.2191,0.2193,0.22,0.2185,0.2186,0.2184,0.2183,0.2189,0.2189,0.2191,0.2204,0.2204,0.219,0.219,0.2191,0.2191,0,0,0,0,0,0,0,0.2181,0.2183,0.2196,0.219,0.2189,0.2185,0.2186,0.2194,0.2191,0.2186,0.2185,0.2186,0.2188,0.219,0.2191,0.2204,0.219,0.2191,0.2191,0.2191,0.2229,0.2229,0,0,0,0,0,0,0.2182,0.2182,0.2196,0.2197,0.2184,0.2186,0.2186,0.2191,0.2191,0.219,0.2186,0.2185,0.2189,0.219,0.2191,0.2209,0.2191,0.2191,0.2192,0.2228,0.2229,0.2229,0,0,0,0,0,0,0.2181,0.2183,0.2196,0.2189,0.219,0.2187,0.2192,0.2191,0.2193,0.2191,0.219,0.2189,0.2189,0.219,0.22,0.2209,0.2192,0.2192,0.2227,0.2228,0.2229,0.2245,0,0,0,0,0,0,0.2181,0.2183,0.219,0.2189,0.2191,0.2206,0.2192,0.2191,0.2194,0.2193,0.2193,0.2193,0.2189,0.2199,0.2201,0.2209,0.2193,0.2227,0.2228,0.2229,0.2244,0.2247,0.2249,0,0,0,0,0,0.218,0.2195,0.219,0.2192,0.2199,0.2207,0.2208,0.2203,0.2195,0.2201,0.2199,0.2193,0.2207,0.2201,0.2202,0.2211,0.2226,0.2228,0.2229,0.2243,0.2246,0.2249,0,0,0,0,0,0,0.2197,0.2195,0.219,0.2205,0.2206,0.2205,0.2213,0.2206,0.221,0.2209,0.2202,0.2202,0.2213,0.2213,0.2206,0.2225,0.2215,0.2217,0.2226,0.2228,0.2231,0.2231,0.2193,0,0,0,0,0,0.2202,0.2209,0.2206,0.222,0.222,0.2216,0.2219,0.2215,0.2216,0.2217,0.2216,0.2217,0.2221,0.2225,0.2229,0.2243,0.2243,0.225,0.2252,0.2254,0.2256,0.2262,0.2265,0.2234,0.2234,0.2234,0,0,0.2214,0.2213,0.2218,0.2223,0.2223,0.223,0.2217,0.2225,0.2229,0.2218,0.2228,0.2227,0.2227,0.2239,0.2244,0.2239,0.2264,0.2256,0.2258,0.2258,0.2263,0.2266,0.2269,0.2235,0.2235,0.2234,0,0,0.2237,0.2238,0.2248,0.2249,0.2249,0.2246,0.2248,0.2247,0.2246,0.2255,0.2247,0.2251,0.226,0.226,0.2262,0.2283,0.2276,0.2284,0.2297,0.2303,0.2305,0.2307,0.2314,0.2316,0.2286,0.2286,0.2286,0,0.2251,0.2261,0.2254,0.2262,0.2264,0.2253,0.2263,0.2264,0.2266,0.2267,0.2261,0.227,0.227,0.2281,0.2286,0.2288,0.2289,0.2285,0.2305,0.2307,0.2309,0.2315,0.2318,0.2287,0.2287,0.2286,0.2286,0,0.2277,0.2284,0.2292,0.2293,0.2296,0.2305,0.2299,0.2302,0.2297,0.2294,0.2303,0.2302,0.2305,0.2307,0.2303,0.2317,0.2313,0.2306,0.2296,0.2313,0.2319,0.2321,0.2288,0.2288,0.2287,0.2287,0,0,0.2314,0.231,0.2313,0.2312,0.2311,0.2316,0.2323,0.2326,0.2328,0.2329,0.2335,0.2341,0.2334,0.2335,0.233,0.2335,0.235,0.2328,0.2327,0.2331,0.2365,0.237,0.2373,0.2346,0.2346,0.2346,0.2364,0,0.2336,0.2349,0.2342,0.2356,0.2361,0.2349,0.2356,0.2355,0.2352,0.2355,0.2351,0.2356,0.2346,0.2347,0.2351,0.2348,0.2357,0.2346,0.235,0.235,0.235,0.2376,0.2382,0.2399,0.2367,0.2367,0.2367,0,0.2365,0.2366,0.238,0.2376,0.2378,0.2384,0.2384,0.2388,0.2386,0.2383,0.2384,0.2377,0.2382,0.2372,0.2379,0.2372,0.2373,0.2371,0.2371,0.2372,0.236,0.2376,0.2404,0.2407,0.2371,0.237,0.237,0,0.2389,0.2394,0.2402,0.2403,0.2398,0.2402,0.2401,0.2398,0.24,0.24,0.2401,0.2402,0.2402,0.2403,0.2396,0.2389,0.2403,0.2393,0.2401,0.2401,0.2405,0.2405,0.2433,0.2405,0.2405,0.2405,0.2405,0,0.2415,0.2423,0.2413,0.2418,0.2427,0.2418,0.2427,0.2424,0.2422,0.2425,0.2416,0.2419,0.241,0.2412,0.2407,0.2413,0.2413,0.241,0.2409,0.2411,0.2412,0.2412,0.2411,0.2406,0.2406,0.2406,0.2406,0,0.2443,0.2437,0.2445,0.244,0.2438,0.2445,0.244,0.2444,0.2439,0.2444,0.2444,0.2437,0.2439,0.2432,0.2433,0.2429,0.2438,0.2434,0.2438,0.2437,0.2445,0.2444,0.2475,0.2478,0.2449,0.2449,0.2449,0,0.246,0.2467,0.2461,0.2463,0.2462,0.2465,0.2465,0.2456,0.2458,0.2455,0.2459,0.246,0.246,0.2464,0.2458,0.2458,0.2454,0.2465,0.2454,0.2456,0.2454,0.2453,0.2453,0.2467,0.2468,0.2468,0.2468,0,0.2491,0.2487,0.2489,0.2488,0.249,0.2489,0.2488,0.249,0.248,0.2482,0.2483,0.2483,0.2483,0.2484,0.2483,0.248,0.2472,0.2471,0.2473,0.2476,0.2477,0.2476,0.2444,0.2471,0.247,0.247,0.247,0.247,0.2514,0.2518,0.2515,0.2516,0.2514,0.2513,0.2516,0.2511,0.2512,0.2512,0.2506,0.2508,0.2504,0.2501,0.2499,0.25,0.2495,0.2498,0.2499,0.2499,0.25,0.2477,0.25,0.25,0.25,0.25,0.25,0,0.2543,0.254,0.2542,0.254,0.2541,0.2532,0.253,0.2531,0.2533,0.253,0.2531,0.2531,0.2531,0.2525,0.2524,0.2526,0.2522,0.2526,0.2525,0.2525,0.2505,0.2504,0.2529,0.2529,0.2529,0.2529,0.2529,0.2529,0.2559,0.2565,0.256,0.2565,0.2561,0.2563,0.2563,0.2561,0.2558,0.256,0.2559,0.2555,0.255,0.2548,0.2547,0.2545,0.2545,0.255,0.2547,0.2529,0.2526,0.2524,0.2522,0.255,0.255,0.2566,0.2566,0.2566]}]]